Lapse_Rate
3.6 4.1 4.6 5.4 5.8 6.0 6.1 6.0 5.9 5.8 5.7 5.8 5.8 5.4 5.2 5.2 9.7 9.6 8.5 8.3 6.8 6.0 5.9 6.4 6.3 6.2 6.5 6.6 6.5 6.5 6.2 6.5 6.5
4.1 4.7 5.0 5.8 6.2 6.9 6.8 6.3 6.0 6.0 5.9 5.7 5.4 5.0 5.1 7.1 9.6 9.7 9.5 7.4 6.0 6.1 6.1 5.9 6.3 6.3 6.3 6.4 6.6 6.7 6.4 6.1 6.2
4.0 5.0 5.8 6.1 6.1 7.0 7.3 7.0 6.2 5.9 5.9 5.7 5.4 4.9 4.8 7.3 9.6 9.6 9.4 5.5 5.9 6.5 6.2 6.3 6.1 6.1 6.4 6.3 6.4 6.6 6.8 6.5 6.5
3.7 5.9 6.6 6.3 6.5 6.3 6.6 6.7 6.3 5.7 5.5 5.1 4.7 4.8 5.4 7.5 9.0 9.6 7.8 5.2 5.8 6.6 6.7 6.5 6.5 6.4 6.1 6.1 6.3 6.3 6.4 6.6 5.5
3.3 4.1 2.6 3.7 5.4 6.4 6.6 6.3 5.5 5.2 5.3 4.9 4.7 5.1 6.2 8.9 9.2 8.2 6.0 5.4 6.4 6.8 6.7 6.7 6.5 6.5 6.3 5.9 5.9 6.0 6.2 6.5 6.8
5.1 2.2 2.3 3.0 3.7 4.5 4.8 5.6 5.2 5.1 5.1 5.2 5.5 5.6 9.0 8.7 8.6 6.6 4.8 6.2 7.0 7.1 7.1 6.7 6.6 6.6 6.2 5.9 5.9 5.6 5.2 5.3 4.7
5.8 4.0 3.1 4.0 4.3 4.8 5.0 4.8 4.6 6.1 5.6 6.0 6.3 6.6 7.8 8.4 6.4 5.6 4.9 6.2 7.3 6.6 6.3 6.5 6.6 6.6 6.4 5.8 5.3 5.2 4.1 4.4 4.8
8.9 8.7 8.3 7.2 6.5 8.2 8.6 7.8 7.3 6.2 6.1 5.4 5.3 5.3 5.6 5.0 3.0 3.9 4.6 5.5 6.3 6.9 6.4 6.2 6.3 6.6 6.0 5.3 5.2 5.2 4.9 4.4 3.8
9.2 8.0 7.6 7.9 7.7 8.1 8.1 8.0 8.0 7.7 6.9 7.4 5.6 4.4 3.5 2.9 2.7 2.2 3.0 4.0 5.5 7.0 6.7 6.3 6.3 6.4 5.7 5.4 5.4 5.0 4.6 4.7 4.0
7.2 7.1 6.9 7.0 7.1 7.4 8.1 8.2 7.9 8.0 6.6 5.4 5.2 4.4 3.5 2.6 2.3 2.0 2.6 3.2 4.3 5.0 6.1 6.3 6.0 6.1 5.6 5.6 5.8 5.6 5.2 5.2 4.6
6.5 6.7 6.6 6.5 6.5 6.6 6.7 7.2 8.3 8.6 7.1 5.1 4.7 4.3 3.5 3.2 2.8 1.8 1.8 2.6 3.6 4.1 4.8 5.2 6.0 6.1 5.7 5.9 6.2 6.0 5.7 5.6 5.0
6.1 6.2 6.0 5.7 5.9 6.4 6.8 6.8 7.1 7.1 7.2 6.6 6.0 5.6 4.8 3.9 3.6 3.2 2.7 2.7 2.5 3.2 4.2 4.6 5.0 5.5 6.1 6.2 6.3 6.1 5.8 5.5 5.6
5.6 5.5 5.0 4.9 5.5 6.4 6.7 7.3 7.1 7.3 7.7 7.2 6.9 6.8 6.3 5.5 4.7 3.5 2.8 3.9 3.4 2.9 2.9 3.1 3.8 4.4 5.0 5.8 6.2 6.5 6.4 6.4 6.0
5.4 5.3 4.8 5.2 5.3 5.5 6.2 6.4 8.2 7.8 7.9 8.1 7.1 7.2 6.6 6.4 5.8 5.3 4.4 3.9 3.6 3.8 2.9 1.7 2.0 3.2 4.3 4.9 5.6 6.4 6.6 6.6 6.6
4.8 4.7 4.6 5.2 5.6 5.5 5.5 5.3 5.8 6.9 7.2 8.3 6.6 6.9 7.2 6.8 6.5 6.1 5.7 5.0 4.6 4.2 3.8 3.0 2.3 2.2 2.8 3.9 4.8 5.8 7.0 6.8 6.5
4.7 4.8 4.8 5.0 5.1 5.0 5.5 5.5 5.4 5.2 5.8 8.4 7.9 7.3 6.9 6.5 6.4 5.9 5.9 5.6 5.1 4.6 4.5 4.3 3.9 3.2 2.5 2.8 3.6 4.8 6.7 6.6 6.5
4.3 4.6 4.6 5.1 5.1 5.0 5.3 5.9 5.4 4.8 5.0 7.8 8.2 7.8 8.0 7.7 6.6 5.8 5.6 5.3 5.1 4.7 4.3 4.0 4.0 4.0 3.3 2.6 3.2 4.4 6.1 6.1 6.5
3.4 3.8 4.3 4.5 5.0 4.5 4.5 4.9 5.8 5.3 4.7 5.0 6.2 7.6 7.4 8.2 8.3 6.3 5.7 5.4 4.9 4.6 4.5 4.1 3.9 3.9 3.8 3.1 2.9 3.8 5.4 6.1 6.5
2.7 3.1 3.8 4.2 4.7 4.6 4.2 4.5 4.9 6.0 5.5 5.3 5.5 5.7 5.8 7.8 7.5 8.2 6.7 6.2 5.5 4.7 4.3 4.0 3.6 3.6 3.6 3.2 2.8 4.2 5.8 6.7 6.7
2.9 3.3 3.6 3.8 3.8 3.8 4.1 4.3 4.6 4.8 5.6 5.6 5.6 5.9 6.1 6.4 7.2 7.6 7.7 7.5 7.0 5.5 4.9 4.3 3.7 3.3 2.8 2.1 2.0 3.3 4.9 6.1 6.3
Wind_Speed
4 4 4 4 3 2 4 4 5 5 2 3 3 3 3 8 2 3 5 3 8 5 4 7 6 4 3 2 3 5 8 4 7
3 2 1 3 2 2 3 6 4 4 4 4 4 2 3 9 5 2 4 10 7 4 4 4 5 3 4 3 4 6 8 11 9
8 12 9 8 9 5 6 7 7 6 7 7 5 2 4 8 4 4 4 10 6 5 3 5 4 3 3 3 3 6 7 7 8
7 10 12 12 13 11 13 11 11 7 8 6 4 2 5 7 6 3 12 11 7 7 6 2 1 3 3 3 3 4 6 8 11
7 8 13 12 11 10 11 11 9 8 6 6 3 3 6 4 4 14 14 9 7 6 5 2 1 0 2 3 3 4 5 6 10
3 5 8 8 7 8 7 7 8 6 3 4 4 7 5 9 11 14 15 12 9 7 6 4 3 1 2 3 5 14 18 17 21
5 4 2 4 2 4 4 5 7 7 7 7 10 13 13 10 15 15 17 15 12 12 11 8 5 3 2 3 8 11 17 17 18
3 4 3 2 3 4 2 3 6 8 7 9 11 13 12 15 15 21 22 18 16 13 14 12 8 2 6 11 11 12 13 16 14
3 4 4 4 4 5 6 6 6 8 9 9 12 12 12 11 11 18 23 25 25 18 16 16 14 6 10 13 13 13 11 12 13
5 5 5 5 5 6 5 5 6 7 13 12 10 12 13 12 10 10 21 24 24 27 24 18 17 9 11 8 10 9 9 9 9
3 3 4 6 6 6 6 5 4 5 8 7 10 11 11 11 11 10 11 20 23 24 25 30 22 14 8 5 8 9 4 3 2
4 3 4 5 5 5 6 7 6 5 6 7 6 8 9 10 11 10 11 11 18 22 23 25 26 28 18 10 5 4 4 4 6
5 3 4 5 5 5 4 5 5 5 5 5 5 5 8 9 10 11 11 11 10 15 19 22 22 23 23 24 21 11 6 7 9
5 4 5 4 5 4 4 4 5 5 5 6 5 5 5 6 9 10 12 12 12 11 14 17 21 21 23 23 22 21 16 15 16
6 6 5 4 3 4 4 6 5 5 5 5 5 5 5 6 5 7 10 11 12 11 12 11 13 19 20 22 21 23 20 19 26
5 5 4 4 3 3 4 4 5 5 3 3 4 4 5 6 5 8 8 9 11 12 13 12 11 11 17 22 25 25 22 23 25
5 4 4 3 3 4 3 2 3 3 3 1 1 3 4 4 4 4 4 6 8 10 12 13 13 12 13 18 24 25 21 23 25
5 5 4 3 3 3 3 3 1 3 2 4 2 2 2 2 4 4 4 5 4 7 8 11 12 13 14 16 20 23 21 20 20
7 6 6 4 3 3 3 3 2 1 3 2 3 4 3 1 2 4 3 3 4 5 5 7 10 11 12 15 20 21 20 18 19
8 7 6 5 4 4 4 4 3 3 2 2 1 2 2 1 1 1 4 3 3 3 3 5 6 8 10 11 14 17 17 18 18
Wind_Direction
1 344 327 315 327 334 39 37 33 45 74 67 55 73 340 296 307 16 87 341 67 43 6 353 8 0 322 240 215 161 153 196 145
8 329 339 297 335 335 47 57 45 40 47 70 68 59 321 306 47 345 10 59 48 10 355 347 319 327 324 287 242 219 185 183 167
26 50 58 44 36 23 39 29 51 36 50 55 56 46 309 281 56 32 52 43 11 359 321 317 290 295 305 309 274 243 220 208 196
19 47 39 38 35 44 50 42 48 50 56 53 54 24 300 316 33 352 58 22 356 352 347 303 293 274 278 315 315 287 264 210 232
9 356 20 25 28 30 46 42 42 32 56 61 54 266 277 7 17 56 27 359 347 347 5 20 53 102 44 55 29 5 333 297 266
101 47 27 34 32 42 37 36 42 357 34 51 343 300 340 56 50 54 13 7 18 12 340 343 307 241 138 108 78 69 50 44 28
76 109 149 68 55 95 84 82 74 22 26 15 10 11 13 32 58 42 18 20 23 35 22 0 342 277 225 123 81 74 70 54 36
175 113 113 70 11 58 110 134 87 78 59 47 39 32 31 44 50 37 33 27 29 29 27 25 6 349 90 111 101 99 86 72 61
87 78 62 63 52 68 60 66 68 78 59 62 61 55 46 46 52 38 37 35 36 35 34 29 23 100 111 110 105 103 82 89 93
77 69 64 54 50 40 59 74 81 74 60 50 56 58 56 52 49 50 42 41 40 39 39 36 34 68 88 102 110 95 99 112 110
72 73 68 60 49 58 66 56 73 82 90 74 63 67 63 59 56 49 44 45 43 43 43 43 42 39 37 81 92 94 59 142 323
85 83 79 63 64 75 85 81 88 82 81 80 85 76 71 67 60 55 50 42 44 46 46 45 42 41 40 39 38 22 353 302 299
90 83 68 45 50 69 71 90 93 87 86 90 83 85 74 68 63 58 54 48 42 45 46 45 42 39 36 33 34 32 348 302 292
101 89 77 70 68 60 79 80 88 89 87 91 80 72 74 74 69 66 59 54 47 44 44 49 44 42 39 35 27 23 20 13 354
106 94 81 80 87 82 78 91 66 79 88 87 81 71 74 74 64 63 62 57 52 48 46 43 41 41 38 35 32 25 31 25 21
106 100 92 80 82 87 85 89 108 87 51 139 119 100 83 67 65 64 56 51 52 43 38 37 38 32 33 30 30 27 34 34 33
121 115 99 95 99 86 81 99 110 92 48 340 327 178 157 106 65 64 64 59 51 45 43 35 31 31 36 25 25 23 30 37 34
122 115 107 92 85 86 72 61 4 119 74 50 342 222 62 144 131 70 62 64 61 58 45 44 34 28 35 28 17 18 22 33 35
138 132 124 111 101 100 84 59 55 291 122 117 54 41 22 308 170 141 111 78 69 56 55 48 48 37 34 35 21 15 17 29 31
152 145 138 128 116 97 87 79 63 37 93 59 121 74 56 40 312 253 146 149 100 70 55 57 54 47 52 41 33 22 16 21 26